Time,TemperatureF,DewpointF,PressureIn,WindDirection,WindDirectionDegrees,WindSpeedMPH,WindSpeedGustMPH,Humidity,HourlyPrecipIn,Conditions,Clouds,dailyrainin,SolarRadiationWatts/m^2,SoftwareType,DateUTC
2013-08-17 00:00:00,54.0,54.0,-100.00,SW,215,15.0,22.0,100,0.00,,,0.00,0.000000,,2013-08-17 07:00:00,
2013-08-17 00:42:00,54.0,54.0,-100.00,SW,215,15.0,22.0,100,0.00,,,0.00,0.000000,,2013-08-17 07:42:00,
2013-08-17 00:52:00,54.0,54.0,-100.00,SW,215,15.0,22.0,100,0.00,,,0.00,0.000000,,2013-08-17 07:52:00,
2013-08-17 01:00:00,54.0,54.0,-100.00,SSW,212,13.0,21.0,100,0.00,,,0.00,0.000000,,2013-08-17 08:00:00,
2013-08-17 01:42:00,54.0,54.0,-100.00,SSW,212,13.0,21.0,100,0.00,,,0.00,0.000000,,2013-08-17 08:42:00,
2013-08-17 01:52:00,54.0,54.0,-100.00,SSW,212,13.0,21.0,100,0.00,,,0.00,0.000000,,2013-08-17 08:52:00,
2013-08-17 02:00:00,55.0,55.0,-100.00,SSW,208,14.0,24.0,100,0.00,,,-99.99,0.000000,,2013-08-17 09:00:00,
2013-08-17 02:43:00,55.0,55.0,-100.00,SSW,208,14.0,24.0,100,0.00,,,-99.99,0.000000,,2013-08-17 09:43:00,
2013-08-17 02:53:00,55.0,55.0,-100.00,SSW,208,14.0,24.0,100,0.00,,,-99.99,0.000000,,2013-08-17 09:53:00,
2013-08-17 03:00:00,54.0,54.0,-100.00,SSW,204,9.0,21.0,100,0.00,,,0.00,0.000000,,2013-08-17 10:00:00,
2013-08-17 03:42:00,54.0,54.0,-100.00,SSW,204,9.0,21.0,100,0.00,,,0.00,0.000000,,2013-08-17 10:42:00,
2013-08-17 03:52:00,54.0,54.0,-100.00,SSW,204,9.0,21.0,100,0.00,,,0.00,0.000000,,2013-08-17 10:52:00,
2013-08-17 04:00:00,54.0,54.0,-100.00,SSW,203,9.0,15.0,100,0.00,,,0.00,0.000000,,2013-08-17 11:00:00,
2013-08-17 04:42:00,54.0,54.0,-100.00,SSW,203,9.0,15.0,100,0.00,,,0.00,0.000000,,2013-08-17 11:42:00,
2013-08-17 04:52:00,54.0,54.0,-100.00,SSW,203,9.0,15.0,100,0.00,,,0.00,0.000000,,2013-08-17 11:52:00,
2013-08-17 05:00:00,54.0,54.0,-100.00,SSW,206,8.0,15.0,100,0.01,,,0.01,0.000000,,2013-08-17 12:00:00,
2013-08-17 05:42:00,54.0,54.0,-100.00,SSW,206,8.0,15.0,100,0.01,,,0.01,0.000000,,2013-08-17 12:42:00,
2013-08-17 05:52:00,54.0,54.0,-100.00,SSW,206,8.0,15.0,100,0.01,,,0.01,0.000000,,2013-08-17 12:52:00,
2013-08-17 06:00:00,55.0,55.0,-100.00,SSW,204,9.0,16.0,100,0.01,,,0.02,0.000000,,2013-08-17 13:00:00,
2013-08-17 06:42:00,55.0,55.0,-100.00,SSW,204,9.0,16.0,100,0.01,,,0.02,0.000000,,2013-08-17 13:42:00,
2013-08-17 06:52:00,55.0,55.0,-100.00,SSW,204,9.0,16.0,100,0.01,,,0.02,0.000000,,2013-08-17 13:52:00,
2013-08-17 07:00:00,54.0,54.0,-100.00,SSW,208,10.0,19.0,100,0.01,,,0.03,2.000000,,2013-08-17 14:00:00,
2013-08-17 07:42:00,54.0,54.0,-100.00,SSW,208,10.0,19.0,100,0.01,,,0.03,2.000000,,2013-08-17 14:42:00,
2013-08-17 07:52:00,54.0,54.0,-100.00,SSW,208,10.0,19.0,100,0.01,,,0.03,2.000000,,2013-08-17 14:52:00,
2013-08-17 08:00:00,54.0,54.0,-100.00,SSW,212,12.0,22.0,100,0.02,,,0.05,16.000000,,2013-08-17 15:00:00,
2013-08-17 08:44:00,54.0,54.0,-100.00,SSW,212,12.0,22.0,100,0.02,,,0.05,16.000000,,2013-08-17 15:44:00,
2013-08-17 08:53:00,54.0,54.0,-100.00,SSW,212,12.0,22.0,100,0.02,,,0.05,16.000000,,2013-08-17 15:53:00,
2013-08-17 09:00:00,54.0,54.0,-100.00,SSW,207,13.0,23.0,100,0.01,,,0.06,60.000000,,2013-08-17 16:00:00,
2013-08-17 09:42:00,54.0,54.0,-100.00,SSW,207,13.0,23.0,100,0.01,,,0.06,60.000000,,2013-08-17 16:42:00,
2013-08-17 09:53:00,54.0,54.0,-100.00,SSW,207,13.0,23.0,100,0.01,,,0.06,60.000000,,2013-08-17 16:53:00,
2013-08-17 10:00:00,56.0,56.0,-100.00,SSW,212,8.0,16.0,100,0.01,,,0.07,104.000000,,2013-08-17 17:00:00,
2013-08-17 10:42:00,56.0,56.0,-100.00,SSW,212,8.0,16.0,100,0.01,,,0.07,104.000000,,2013-08-17 17:42:00,
2013-08-17 10:52:00,56.0,56.0,-100.00,SSW,212,8.0,16.0,100,0.01,,,0.07,104.000000,,2013-08-17 17:52:00,
2013-08-17 11:00:00,57.0,57.0,-100.00,SSW,211,8.0,14.0,100,0.00,,,0.07,218.000000,,2013-08-17 18:00:00,
2013-08-17 11:21:00,57.0,57.0,-100.00,SSW,211,8.0,14.0,100,0.00,,,0.07,218.000000,,2013-08-17 18:21:00,
2013-08-17 11:32:00,57.0,57.0,-100.00,SSW,211,8.0,14.0,100,0.00,,,0.07,218.000000,,2013-08-17 18:32:00,
2013-08-17 11:42:00,57.0,57.0,-100.00,SSW,211,8.0,14.0,100,0.00,,,0.07,218.000000,,2013-08-17 18:42:00,
2013-08-17 11:52:00,57.0,57.0,-100.00,SSW,211,8.0,14.0,100,0.00,,,0.07,218.000000,,2013-08-17 18:52:00,
2013-08-17 12:00:00,56.0,56.0,-100.00,SW,215,8.0,15.0,100,0.00,,,0.07,248.000000,,2013-08-17 19:00:00,
2013-08-17 12:42:00,56.0,56.0,-100.00,SW,215,8.0,15.0,100,0.00,,,0.07,248.000000,,2013-08-17 19:42:00,
2013-08-17 12:52:00,56.0,56.0,-100.00,SW,215,8.0,15.0,100,0.00,,,0.07,248.000000,,2013-08-17 19:52:00,
2013-08-17 13:00:00,57.0,57.0,-100.00,SW,220,8.0,14.0,100,0.01,,,0.08,312.000000,,2013-08-17 20:00:00,
2013-08-17 13:42:00,57.0,57.0,-100.00,SW,220,8.0,14.0,100,0.01,,,0.08,312.000000,,2013-08-17 20:42:00,
2013-08-17 13:52:00,57.0,57.0,-100.00,SW,220,8.0,14.0,100,0.01,,,0.08,312.000000,,2013-08-17 20:52:00,
2013-08-17 14:00:00,58.0,58.0,-100.00,SW,225,9.0,13.0,100,0.00,,,0.08,354.000000,,2013-08-17 21:00:00,
2013-08-17 14:22:00,58.0,58.0,-100.00,SW,225,9.0,13.0,100,0.00,,,0.08,354.000000,,2013-08-17 21:22:00,
2013-08-17 14:33:00,58.0,58.0,-100.00,SW,225,9.0,13.0,100,0.00,,,0.08,354.000000,,2013-08-17 21:33:00,
2013-08-17 14:42:00,58.0,58.0,-100.00,SW,225,9.0,13.0,100,0.00,,,0.08,354.000000,,2013-08-17 21:42:00,
2013-08-17 14:53:00,58.0,58.0,-100.00,SW,225,9.0,13.0,100,0.00,,,0.08,354.000000,,2013-08-17 21:53:00,
2013-08-17 15:00:00,55.0,55.0,-100.00,SW,221,8.0,14.0,100,0.00,,,0.08,240.000000,,2013-08-17 22:00:00,
2013-08-17 15:42:00,55.0,55.0,-100.00,SW,221,8.0,14.0,100,0.00,,,0.08,240.000000,,2013-08-17 22:42:00,
2013-08-17 15:52:00,55.0,55.0,-100.00,SW,221,8.0,14.0,100,0.00,,,0.08,240.000000,,2013-08-17 22:52:00,
2013-08-17 16:00:00,57.0,57.0,-100.00,SW,219,7.0,13.0,100,0.00,,,0.08,170.000000,,2013-08-17 23:00:00,
2013-08-17 16:42:00,57.0,57.0,-100.00,SW,219,7.0,13.0,100,0.00,,,0.08,170.000000,,2013-08-17 23:42:00,
2013-08-17 16:52:00,57.0,57.0,-100.00,SW,219,7.0,13.0,100,0.00,,,0.08,170.000000,,2013-08-17 23:52:00,
2013-08-17 17:00:00,57.0,57.0,-100.00,SW,220,7.0,13.0,100,0.00,,,0.08,237.000000,,2013-08-18 00:00:00,
2013-08-17 17:21:00,57.0,57.0,-100.00,SW,220,7.0,13.0,100,0.00,,,0.08,237.000000,,2013-08-18 00:21:00,
2013-08-17 17:32:00,57.0,57.0,-100.00,SW,220,7.0,13.0,100,0.00,,,0.08,237.000000,,2013-08-18 00:32:00,
2013-08-17 17:42:00,57.0,57.0,-100.00,SW,220,7.0,13.0,100,0.00,,,0.08,237.000000,,2013-08-18 00:42:00,
2013-08-17 17:52:00,57.0,57.0,-100.00,SW,220,7.0,13.0,100,0.00,,,0.08,237.000000,,2013-08-18 00:52:00,
2013-08-17 18:00:00,59.0,59.0,-100.00,SW,214,6.0,12.0,100,0.00,,,0.08,273.000000,,2013-08-18 01:00:00,
2013-08-17 18:42:00,59.0,59.0,-100.00,SW,214,6.0,12.0,100,0.00,,,0.08,273.000000,,2013-08-18 01:42:00,
2013-08-17 18:52:00,59.0,59.0,-100.00,SW,214,6.0,12.0,100,0.00,,,0.08,273.000000,,2013-08-18 01:52:00,
2013-08-17 19:00:00,56.0,56.0,-100.00,SW,221,7.0,11.0,100,0.00,,,0.08,155.000000,,2013-08-18 02:00:00,
2013-08-17 19:42:00,56.0,56.0,-100.00,SW,221,7.0,11.0,100,0.00,,,0.08,155.000000,,2013-08-18 02:42:00,
2013-08-17 19:52:00,56.0,56.0,-100.00,SW,221,7.0,11.0,100,0.00,,,0.08,155.000000,,2013-08-18 02:52:00,
2013-08-17 20:00:00,-999.0,-99.9,-100.00,SW,227,6.0,11.0,-999,0.00,,,0.08,34.000000,,2013-08-18 03:00:00,
2013-08-17 20:43:00,54.0,54.0,-100.00,SW,227,6.0,11.0,100,0.00,,,0.08,34.000000,,2013-08-18 03:43:00,
2013-08-17 20:53:00,54.0,54.0,-100.00,SW,227,6.0,11.0,100,0.00,,,0.08,34.000000,,2013-08-18 03:53:00,
2013-08-17 21:00:00,53.0,53.0,-100.00,SW,230,6.0,12.0,100,0.00,,,0.08,2.000000,,2013-08-18 04:00:00,
2013-08-17 21:42:00,53.0,53.0,-100.00,SW,230,6.0,12.0,100,0.00,,,0.08,2.000000,,2013-08-18 04:42:00,
2013-08-17 21:53:00,53.0,53.0,-100.00,SW,230,6.0,12.0,100,0.00,,,0.08,2.000000,,2013-08-18 04:53:00,
2013-08-17 22:00:00,50.0,50.0,-100.00,SW,234,8.0,13.0,100,0.00,,,0.08,0.000000,,2013-08-18 05:00:00,
2013-08-17 22:42:00,50.0,50.0,-100.00,SW,234,8.0,13.0,100,0.00,,,0.08,0.000000,,2013-08-18 05:42:00,
2013-08-17 22:52:00,50.0,50.0,-100.00,SW,234,8.0,13.0,100,0.00,,,0.08,0.000000,,2013-08-18 05:52:00,
2013-08-17 23:00:00,51.0,51.0,-100.00,SW,221,10.0,14.0,100,0.00,,,0.08,0.000000,,2013-08-18 06:00:00,
2013-08-17 23:42:00,51.0,51.0,-100.00,SW,221,10.0,14.0,100,0.00,,,0.08,0.000000,,2013-08-18 06:42:00,
2013-08-17 23:52:00,51.0,51.0,-100.00,SW,221,10.0,14.0,100,0.00,,,0.08,0.000000,,2013-08-18 06:52:00,